Latest Weather Observations for St Kilda Harbour RMYS

IDV60801

Issued at 3:31 pm EDT Monday 22 December 2014 (issued every 30 minutes, with the page automatically refreshed every 10 minutes)

About weather observations | Map of weather stations | Latest weather observations for VIC | Other Formats
Station Details ID: 086220 Name: ST KILDA HARBOUR - RMYS Lat: -37.86 Lon: 144.96 Height: 6.4 m
Data from the previous 72 hours. | See also: Recent months for locations in Victoria
Date/Time
EDT
Temp
°C
App
Temp
°C
Dew
Point
Rel
Hum
%
Delta-T
°C
Wind Press
QNH
hPa
Press
MSL
hPa
Rain
since 9 am
mm
Dir
 
Spd
km/h
Gust
km/h
Spd
kts
Gust
kts
22/03:30pm - - - - - S 17 20 9 11 - - -
22/03:00pm - - - - - SW 13 19 7 10 - - -
22/02:30pm - - - - - S 13 15 7 8 - - -
22/02:00pm - - - - - SSW 17 20 9 11 - - -
22/01:30pm - - - - - SSW 22 26 12 14 - - -
22/01:00pm - - - - - SW 26 30 14 16 - - -
22/12:30pm - - - - - SW 26 30 14 16 - - -
22/12:00pm - - - - - SSW 20 24 11 13 - - -
22/11:30am - - - - - SSW 19 20 10 11 - - -
22/11:00am - - - - - S 19 22 10 12 - - -
22/10:30am - - - - - SSW 19 22 10 12 - - -
22/10:00am - - - - - SSW 15 19 8 10 - - -
22/09:30am - - - - - SSW 13 17 7 9 - - -
22/09:00am - - - - - SSW 7 11 4 6 - - -
22/08:30am - - - - - WSW 2 6 1 3 - - -
22/08:00am - - - - - SSE 6 9 3 5 - - -
22/07:30am - - - - - E 7 11 4 6 - - -
22/07:00am - - - - - ESE 9 11 5 6 - - -
22/06:30am - - - - - E 6 9 3 5 - - -
22/06:00am - - - - - E 9 11 5 6 - - -
22/05:30am - - - - - ESE 9 11 5 6 - - -
22/05:00am - - - - - ESE 6 7 3 4 - - -
22/04:30am - - - - - SE 6 7 3 4 - - -
22/04:00am - - - - - SSE 6 7 3 4 - - -
22/03:30am - - - - - S 9 15 5 8 - - -
22/03:00am - - - - - S 13 17 7 9 - - -
22/02:30am - - - - - S 13 17 7 9 - - -
22/02:00am - - - - - SSE 15 17 8 9 - - -
22/01:30am - - - - - SSW 15 19 8 10 - - -
22/01:00am - - - - - SSW 22 24 12 13 - - -
22/12:30am - - - - - SSW 28 32 15 17 - - -
22/12:00am - - - - - SSW 26 30 14 16 - - -
 
Date/Time
EDT
Temp
°C
App
Temp
°C
Dew
Point
Rel
Hum
%
Delta-T
°C
Wind Press
QNH
hPa
Press
MSL
hPa
Rain
since 9 am
mm
Dir
 
Spd
km/h
Gust
km/h
Spd
kts
Gust
kts
21/11:30pm - - - - - SSW 22 26 12 14 - - -
21/11:00pm - - - - - S 24 30 13 16 - - -
21/10:30pm - - - - - SSW 33 39 18 21 - - -
21/10:00pm - - - - - S 22 28 12 15 - - -
21/09:30pm - - - - - SSW 24 30 13 16 - - -
21/09:00pm - - - - - SSW 24 28 13 15 - - -
21/08:30pm - - - - - SSE 17 20 9 11 - - -
21/08:00pm - - - - - S 26 32 14 17 - - -
21/07:30pm - - - - - S 28 32 15 17 - - -
21/07:00pm - - - - - S 32 37 17 20 - - -
21/06:30pm - - - - - S 30 32 16 17 - - -
21/06:00pm - - - - - SSE 28 32 15 17 - - -
21/05:30pm - - - - - SSW 33 37 18 20 - - -
21/05:00pm - - - - - S 26 32 14 17 - - -
21/04:30pm - - - - - SSE 30 33 16 18 - - -
21/04:00pm - - - - - S 30 35 16 19 - - -
21/03:30pm - - - - - SSE 24 28 13 15 - - -
21/03:00pm - - - - - S 24 28 13 15 - - -
21/02:30pm - - - - - SSE 19 20 10 11 - - -
21/02:00pm - - - - - S 20 22 11 12 - - -
21/01:30pm - - - - - SSE 22 26 12 14 - - -
21/01:00pm - - - - - S 24 28 13 15 - - -
21/12:30pm - - - - - S 19 22 10 12 - - -
21/12:00pm - - - - - S 15 17 8 9 - - -
21/11:30am - - - - - S 17 17 9 9 - - -
21/11:00am - - - - - S 19 20 10 11 - - -
21/10:30am - - - - - SSW 9 11 5 6 - - -
21/10:00am - - - - - NNE 4 9 2 5 - - -
21/09:30am - - - - - NE 9 13 5 7 - - -
21/09:00am - - - - - NE 7 13 4 7 - - -
21/08:30am - - - - - NNE 9 15 5 8 - - -
21/08:00am - - - - - NE 11 15 6 8 - - -
21/07:30am - - - - - NE 7 9 4 5 - - -
21/07:00am - - - - - NE 7 9 4 5 - - -
21/06:30am - - - - - NE 6 7 3 4 - - -
21/06:00am - - - - - NNE 6 6 3 3 - - -
21/05:30am - - - - - NNW 2 6 1 3 - - -
21/05:00am - - - - - N 6 7 3 4 - - -
21/04:30am - - - - - NNE 7 9 4 5 - - -
21/04:00am - - - - - NE 7 9 4 5 - - -
21/03:30am - - - - - ENE 6 9 3 5 - - -
21/03:00am - - - - - E 6 7 3 4 - - -
21/02:30am - - - - - E 6 9 3 5 - - -
21/02:00am - - - - - ESE 7 11 4 6 - - -
21/01:30am - - - - - ESE 7 11 4 6 - - -
21/01:00am - - - - - ESE 9 11 5 6 - - -
21/12:30am - - - - - ESE 7 9 4 5 - - -
21/12:00am - - - - - SE 7 11 4 6 - - -
 
Date/Time
EDT
Temp
°C
App
Temp
°C
Dew
Point
Rel
Hum
%
Delta-T
°C
Wind Press
QNH
hPa
Press
MSL
hPa
Rain
since 9 am
mm
Dir
 
Spd
km/h
Gust
km/h
Spd
kts
Gust
kts
20/11:30pm - - - - - SE 11 15 6 8 - - -
20/11:00pm - - - - - SE 11 15 6 8 - - -
20/10:30pm - - - - - ESE 13 17 7 9 - - -
20/10:00pm - - - - - SSE 17 20 9 11 - - -
20/09:30pm - - - - - SSE 20 24 11 13 - - -
20/09:00pm - - - - - SSE 26 30 14 16 - - -
20/08:30pm - - - - - S 32 35 17 19 - - -
20/08:00pm - - - - - S 33 37 18 20 - - -
20/07:30pm - - - - - S 33 41 18 22 - - -
20/07:00pm - - - - - SSW 33 37 18 20 - - -
20/06:30pm - - - - - S 30 35 16 19 - - -
20/06:00pm - - - - - S 28 32 15 17 - - -
20/05:30pm - - - - - S 28 32 15 17 - - -
20/05:00pm - - - - - S 26 30 14 16 - - -
20/04:30pm - - - - - S 26 32 14 17 - - -
20/04:00pm - - - - - S 32 35 17 19 - - -
20/03:30pm - - - - - S 26 32 14 17 - - -
20/03:00pm - - - - - S 17 19 9 10 - - -
20/02:30pm - - - - - S 17 19 9 10 - - -
20/02:00pm - - - - - S 17 20 9 11 - - -
20/01:30pm - - - - - SSE 7 11 4 6 - - -
20/01:00pm - - - - - SSE 11 13 6 7 - - -
20/12:30pm - - - - - SSE 7 13 4 7 - - -
20/12:00pm - - - - - S 7 13 4 7 - - -
20/11:30am - - - - - S 9 17 5 9 - - -
20/11:00am - - - - - SSW 13 19 7 10 - - -
20/10:30am - - - - - SW 13 19 7 10 - - -
20/10:00am - - - - - SW 15 19 8 10 - - -
20/09:30am - - - - - SW 13 17 7 9 - - -
20/09:00am - - - - - WSW 7 15 4 8 - - -
20/08:30am - - - - - WSW 11 15 6 8 - - -
20/08:00am - - - - - W 9 15 5 8 - - -
20/07:30am - - - - - W 11 15 6 8 - - -
20/07:00am - - - - - WNW 11 17 6 9 - - -
20/06:30am - - - - - WNW 13 17 7 9 - - -
20/06:00am - - - - - W 15 19 8 10 - - -
20/05:30am - - - - - WSW 17 20 9 11 - - -
20/05:00am - - - - - WSW 19 24 10 13 - - -
20/04:30am - - - - - WSW 26 30 14 16 - - -
20/04:00am - - - - - WSW 22 26 12 14 - - -
20/03:30am - - - - - WSW 22 26 12 14 - - -
20/03:00am - - - - - WSW 24 30 13 16 - - -
20/02:30am - - - - - WSW 20 26 11 14 - - -
20/02:00am - - - - - W 20 24 11 13 - - -
20/01:30am - - - - - WSW 24 28 13 15 - - -
20/01:00am - - - - - SSW 20 28 11 15 - - -
20/12:30am - - - - - SSW 17 22 9 12 - - -
20/12:00am - - - - - S 20 28 11 15 - - -
 
Date/Time
EDT
Temp
°C
App
Temp
°C
Dew
Point
Rel
Hum
%
Delta-T
°C
Wind Press
QNH
hPa
Press
MSL
hPa
Rain
since 9 am
mm
Dir
 
Spd
km/h
Gust
km/h
Spd
kts
Gust
kts
19/11:30pm - - - - - S 22 28 12 15 - - -
19/11:00pm - - - - - S 22 28 12 15 - - -
19/10:30pm - - - - - S 22 28 12 15 - - -
19/10:00pm - - - - - S 20 28 11 15 - - -
19/09:30pm - - - - - S 22 28 12 15 - - -
19/09:00pm - - - - - S 24 30 13 16 - - -
19/08:30pm - - - - - S 24 32 13 17 - - -
19/08:00pm - - - - - S 30 37 16 20 - - -
19/07:30pm - - - - - S 30 39 16 21 - - -
19/07:00pm - - - - - S 28 35 15 19 - - -
19/06:30pm - - - - - S 30 35 16 19 - - -
19/06:00pm - - - - - S 28 37 15 20 - - -
19/05:30pm - - - - - S 26 35 14 19 - - -
19/05:00pm - - - - - S 26 32 14 17 - - -
19/04:30pm - - - - - S 24 30 13 16 - - -
19/04:00pm - - - - - S 24 28 13 15 - - -

Other Formats:

Comma delimited format used in spreadsheet applications
http://www.bom.gov.au/fwo/IDV60801/IDV60801.95864.axf

JavaScript Object Notation format (JSON) in row-major order
http://www.bom.gov.au/fwo/IDV60801/IDV60801.95864.json